User: anonymous   Login
Location: Unspecified
(0.0000°N, 0.0000°E)
Time: 13:47:52
(UTC+00:00)
Language:

APRIZESAT 10 - Orbit

View from above orbital plane
View from above orbital plane
View from above satellite
View from above satellite

Ground track
Ground track

The orbit data is extracted from the following two-line orbital elements,

1 40019U 14033K   17114.72510931 +.00000121 +00000-0 +28811-4 0  9995
2 40019 097.8448 348.9705 0085442 133.7347 227.0974 14.66865122152384
Epoch (UTC): 24 April 2017 17:24:09
Eccentricity: 0.0085442
inclination: 97.8448°
perigee height: 611 km
apogee height: 731 km
right ascension of ascending node: 348.9705°
argument of perigee: 133.7347°
revolutions per day: 14.66865122
mean anomaly at epoch: 227.0974°
orbit number at epoch: 15238

The dashed part of the orbit path shows where the satellite is in the earth's shadow,  

DLR